Theta_e
352 352 353 353 352 351 350 351 350 350 351 351 352 352 353 353 353 354 354 354 353 353 353 353 353 353 354 354 354 354 354 353 353 352 352 352 352 352 352 352 350 350 351 350 352 351 351 350 349 348 349 348 347 346 346 345 343 342 341 341 342 343 342 340 338 340 346 345 343 342 342 344 344 344 342 342 343 342 341 341 343 340 343 342 341
350 353 353 354 351 351 350 350 350 350 351 351 352 352 353 353 354 354 354 354 354 354 354 354 354 354 354 354 354 353 353 353 353 353 352 352 352 352 352 351 351 351 350 350 350 351 350 348 350 349 347 346 345 344 343 342 342 341 341 341 342 346 347 346 344 343 343 345 346 345 345 344 343 342 341 341 340 340 339 340 341 341 341 341 341
352 352 353 353 351 350 350 350 350 350 350 351 351 352 353 354 354 354 354 354 355 354 354 354 354 354 354 353 353 353 353 353 352 352 351 351 352 351 352 351 351 350 350 351 350 350 349 349 348 347 346 347 347 346 344 343 342 341 341 340 340 345 345 345 344 345 344 345 346 346 344 344 343 343 343 342 340 338 338 341 340 339 339 338 338
351 352 353 354 350 350 350 350 349 350 350 351 351 352 354 354 354 354 354 354 354 354 354 354 354 354 354 353 353 353 353 353 352 352 352 352 352 351 352 351 351 351 350 350 350 350 349 348 348 347 347 347 347 347 346 345 344 342 341 341 341 343 344 343 343 343 343 343 344 345 343 342 345 344 345 345 343 341 340 339 338 337 337 336 336
352 351 352 352 352 350 349 349 350 351 350 351 352 352 354 353 353 353 354 354 354 354 354 354 353 353 353 353 353 352 352 352 352 352 352 351 351 351 350 350 351 350 350 350 350 349 349 349 350 349 348 348 347 347 346 345 345 344 342 342 342 342 343 341 341 340 340 341 343 346 342 341 344 345 345 346 345 344 343 342 340 339 337 336 336
352 352 351 351 351 351 349 349 350 350 350 350 351 352 353 353 353 354 353 354 354 354 353 353 353 354 353 353 353 353 352 352 352 352 352 351 350 350 351 351 351 350 351 350 349 349 349 349 349 349 348 348 347 346 346 345 345 344 343 343 343 343 342 340 338 337 336 335 342 340 341 341 342 344 345 345 344 343 343 341 339 338 339 338 339
352 352 352 352 352 351 350 350 349 349 350 349 351 352 353 353 352 353 354 353 354 354 354 354 354 353 353 353 353 352 353 353 352 352 351 350 350 350 351 351 350 350 349 350 349 348 349 349 348 348 348 347 346 345 345 344 344 344 344 343 343 342 341 339 338 335 335 339 344 342 341 340 340 340 342 343 343 342 340 339 338 337 341 340 339
353 351 351 350 352 351 350 349 349 349 349 350 351 352 353 352 353 353 353 353 353 353 354 354 353 353 353 353 353 352 352 352 351 351 350 349 348 348 349 350 349 349 349 349 348 348 348 347 347 347 347 346 345 344 344 344 344 343 344 344 343 341 340 339 338 337 338 340 342 343 343 341 341 340 341 342 342 341 338 337 337 336 338 338 338
350 350 351 350 350 349 349 350 349 349 349 351 351 351 352 353 353 353 353 353 353 353 353 353 353 352 352 352 352 351 351 351 350 350 349 349 348 348 347 347 347 347 346 346 346 346 346 347 346 345 344 344 344 345 345 345 344 343 344 343 343 342 340 339 338 338 342 342 342 342 342 342 341 340 338 338 339 337 336 337 339 338 337 336 336
350 352 351 351 351 350 350 350 349 349 349 350 351 352 352 352 353 353 353 353 353 353 353 353 353 353 352 352 352 351 351 351 350 350 349 348 348 347 347 347 346 346 345 345 345 345 344 345 344 343 344 345 345 346 346 346 346 345 344 343 343 342 340 339 340 342 340 339 338 340 342 349 339 339 338 336 335 334 334 338 340 339 337 334 334
350 350 351 350 349 350 350 350 349 349 349 351 351 352 352 352 352 353 352 353 353 353 353 353 352 352 352 351 350 350 350 350 350 349 348 346 345 344 344 345 344 344 344 343 344 345 345 344 343 343 344 345 347 346 347 347 346 345 345 344 343 341 340 341 340 340 340 338 340 340 339 342 343 342 339 336 335 335 340 339 339 337 335 334 334
349 352 352 352 352 350 350 349 349 350 349 351 351 351 352 352 352 352 352 352 353 353 353 352 352 351 350 350 349 349 349 349 349 349 347 345 345 344 344 343 342 342 342 342 342 342 343 344 343 343 344 346 347 348 348 348 346 347 345 343 343 341 340 341 343 339 341 340 340 343 342 342 342 342 338 337 337 338 336 337 337 336 334 335 335
350 350 353 352 350 351 350 350 349 350 350 350 350 351 351 351 352 352 352 353 353 353 352 352 351 350 349 349 349 348 348 348 347 347 346 346 346 346 346 345 344 344 343 343 342 342 343 344 343 343 345 346 348 348 347 347 346 345 345 344 343 342 341 342 342 338 338 340 341 341 339 343 342 339 339 338 336 335 334 335 334 333 334 335 334
349 350 351 349 350 351 350 350 350 350 350 350 350 350 351 352 352 352 352 352 352 352 351 351 350 350 349 348 348 347 347 346 346 346 346 346 345 345 344 343 343 342 342 342 342 342 343 342 342 343 345 347 347 347 347 347 346 345 345 344 343 341 341 344 341 338 339 340 343 340 342 343 343 337 336 337 337 336 334 333 333 333 333 335 335
349 351 352 351 350 350 352 350 350 350 350 350 350 351 352 352 352 352 352 352 352 351 351 351 350 349 349 349 348 347 347 347 346 346 346 345 345 345 345 342 341 342 342 342 342 342 342 342 342 342 344 346 347 347 347 346 345 345 344 343 343 342 341 342 338 339 338 338 339 340 341 341 338 337 336 338 336 333 334 334 333 335 334 334 334
352 352 350 351 350 350 350 351 350 350 350 351 351 351 351 351 351 351 352 352 352 351 350 350 350 350 349 348 348 347 346 345 345 345 345 345 345 345 344 344 344 343 342 342 342 343 342 342 341 342 344 345 347 347 347 346 345 345 344 343 342 341 342 343 340 340 339 339 339 341 341 339 338 335 336 337 334 332 333 333 333 333 331 331 336
352 351 350 350 351 350 350 350 349 350 350 350 350 350 350 350 350 351 351 351 351 351 350 350 350 349 348 348 347 347 346 346 345 345 345 344 344 344 344 344 345 344 342 342 342 342 342 341 341 342 344 345 346 346 346 346 345 345 344 343 342 341 342 342 339 340 337 336 338 341 343 340 338 338 338 337 334 333 334 333 333 333 331 334 333
351 350 349 350 349 350 350 350 349 350 351 351 349 349 348 349 349 349 350 350 350 350 350 349 349 349 349 348 348 347 346 346 345 345 344 344 344 345 344 345 344 344 343 342 342 342 341 341 341 342 345 345 346 346 346 345 344 344 342 342 340 341 341 341 342 340 338 338 337 340 342 341 338 337 337 338 335 333 330 331 332 332 332 332 332
351 350 350 350 348 350 349 350 351 350 349 350 350 349 348 348 348 348 349 349 350 349 349 349 349 349 348 348 348 347 347 346 345 345 345 344 344 344 344 344 344 343 342 342 341 341 341 341 341 342 344 345 346 346 345 344 344 343 342 342 341 340 342 342 341 340 341 342 341 341 340 339 337 337 337 335 334 332 331 332 331 331 329 330 332
350 350 349 349 350 349 350 349 349 349 350 350 349 349 348 347 347 348 347 348 349 349 349 348 349 348 348 348 348 349 348 349 346 346 345 344 344 345 344 345 344 344 344 342 341 341 340 341 341 341 343 344 345 345 344 343 342 342 342 342 341 341 342 343 340 340 341 338 343 342 338 338 337 335 334 333 331 331 331 331 329 331 332 331 331
347 348 348 349 351 349 349 348 348 347 348 348 348 347 348 347 348 347 347 347 348 348 348 347 349 348 347 346 347 346 348 346 350 346 346 347 346 344 344 344 344 344 343 342 341 340 340 339 339 339 342 344 344 344 343 342 342 342 342 341 342 342 344 343 344 342 341 341 343 340 338 337 337 333 334 333 334 332 331 330 330 330 330 331 331
344 345 348 348 348 348 347 347 346 345 346 346 346 347 348 346 347 349 349 349 348 348 350 348 348 349 345 348 347 345 344 346 345 341 344 349 348 344 344 343 343 344 344 343 342 341 339 338 338 338 339 343 344 347 345 343 342 342 341 342 342 342 343 345 344 341 341 342 342 339 338 337 335 335 335 334 333 331 330 328 329 330 331 330 331
342 343 344 347 348 348 347 345 345 345 345 344 345 345 344 346 345 346 346 345 348 348 346 346 347 346 345 344 345 348 349 348 349 346 346 343 348 344 344 345 344 343 344 344 343 340 339 338 336 338 338 339 347 343 345 344 345 342 342 344 343 344 344 344 344 343 341 341 341 339 338 337 336 335 334 334 334 331 330 329 331 331 331 331 331
342 342 343 347 347 346 344 344 344 345 343 343 344 344 342 345 345 346 347 347 345 345 345 346 346 347 345 346 347 348 349 350 348 346 347 348 347 347 345 344 343 343 341 345 341 341 339 337 337 335 339 343 343 341 339 342 347 347 347 342 341 342 343 344 341 342 342 339 339 339 338 337 335 336 334 334 335 332 330 331 332 331 331 331 331
342 343 343 344 345 345 343 344 344 345 341 342 343 342 344 343 343 344 346 345 345 345 345 346 346 346 346 348 348 348 349 350 350 350 350 349 349 349 347 347 347 347 342 346 344 343 345 337 334 337 340 342 341 341 341 342 344 343 344 343 343 344 343 343 341 340 342 343 343 340 338 337 337 335 335 334 334 332 331 330 331 332 331 330 330
343 341 341 342 343 342 342 342 345 343 344 343 344 342 343 343 344 344 345 345 345 345 345 346 346 347 347 347 348 348 347 350 350 350 351 349 348 347 348 348 348 346 343 346 344 345 345 340 336 334 338 342 342 342 342 342 341 342 342 343 343 344 343 342 342 343 344 343 344 338 338 338 337 336 335 335 334 333 332 332 332 332 331 330 330
339 339 340 341 343 343 343 344 343 342 344 344 345 343 342 343 344 345 343 343 345 345 344 345 347 347 347 348 347 346 345 346 347 348 348 349 349 347 348 348 348 348 347 343 343 344 343 343 339 337 337 339 341 341 340 342 343 340 343 342 343 343 343 342 341 341 342 343 343 338 338 338 337 337 336 335 334 333 331 332 333 331 332 330 330
336 338 339 341 342 342 344 344 342 343 344 344 344 342 343 344 345 344 344 344 345 344 344 344 346 346 347 347 347 346 345 344 346 345 346 347 346 348 349 347 346 347 348 345 343 343 342 342 343 339 336 337 338 340 340 340 341 343 341 343 343 343 343 340 342 343 342 343 342 340 339 338 338 338 337 336 335 333 332 333 332 333 332 330 331
335 337 338 339 341 341 343 343 344 343 344 345 343 342 343 344 344 343 343 345 345 345 345 345 345 344 347 347 348 348 345 346 345 346 347 346 347 348 347 346 348 346 346 345 344 342 343 341 342 340 339 338 339 340 339 340 341 342 341 341 342 342 342 341 342 340 342 343 343 341 339 338 339 338 337 337 336 334 333 333 333 333 333 332 332
336 338 337 339 341 343 343 344 343 343 343 344 343 343 344 344 345 345 346 346 345 346 347 347 346 347 346 347 347 346 346 346 345 346 346 347 346 348 347 346 347 346 345 345 345 343 341 341 341 340 338 338 336 339 339 340 342 342 341 340 338 340 341 339 340 340 343 344 343 343 339 339 339 339 338 337 338 335 335 333 333 333 334 333 333
338 338 339 340 343 344 344 345 345 345 343 343 344 344 346 346 347 347 347 347 347 348 349 349 348 348 348 347 347 347 348 346 346 346 346 346 347 346 346 347 345 345 347 345 347 345 344 343 341 339 340 339 339 339 337 339 341 341 342 340 339 339 338 342 341 341 342 343 343 344 342 340 340 339 339 338 337 337 335 333 334 334 334 334 333
337 339 340 343 343 344 346 347 347 346 345 344 346 347 348 348 349 349 350 349 350 349 347 349 348 347 347 347 347 348 347 348 348 348 349 347 347 346 345 345 345 345 346 345 345 346 346 346 345 344 343 342 339 339 340 338 338 338 339 338 339 341 339 341 342 342 343 344 344 343 342 339 340 340 339 339 337 337 338 335 334 335 334 335 335
339 342 342 344 347 346 343 346 347 347 347 347 347 349 350 349 348 349 349 348 349 350 348 348 347 347 347 347 347 347 348 350 349 349 346 348 348 347 345 346 348 346 347 345 346 347 346 345 347 349 345 344 340 340 340 340 339 339 340 340 341 340 342 342 343 343 342 343 343 341 342 342 342 339 339 338 338 337 336 336 335 335 335 335 335
339 341 345 345 347 341 340 342 345 346 346 348 348 347 349 349 348 349 350 349 348 349 347 347 347 347 348 348 347 348 348 348 349 349 346 349 349 347 344 345 345 346 347 348 345 346 344 344 344 345 344 344 343 343 341 341 340 341 342 342 342 342 343 343 342 343 343 343 343 343 341 340 341 344 341 339 338 337 337 337 336 335 335 335 335
341 344 344 343 339 338 341 342 346 347 345 345 346 346 348 348 347 348 348 348 347 348 348 349 348 349 349 348 348 348 347 347 348 348 347 347 347 346 346 345 347 347 346 347 345 347 346 344 344 343 346 345 343 343 342 342 342 342 343 345 344 343 345 345 345 345 344 344 344 343 343 342 342 344 343 343 338 338 337 337 336 336 336 335 335
344 344 344 338 336 342 342 344 343 345 347 347 348 348 348 347 347 345 347 348 347 347 348 348 347 346 348 349 348 348 347 348 348 347 346 347 347 346 346 348 347 347 346 346 347 346 346 345 345 345 341 342 343 343 343 342 342 342 344 344 345 345 344 344 343 343 343 344 343 344 344 343 344 343 343 343 342 338 337 336 336 336 337 337 336
345 343 342 339 341 341 343 343 343 347 348 348 348 348 347 347 347 347 346 346 346 346 345 346 346 347 348 347 348 348 349 349 349 348 347 348 347 347 347 347 349 348 347 347 346 345 345 342 343 344 343 341 341 340 342 342 342 342 344 345 346 345 345 344 344 344 345 343 343 342 343 343 343 342 344 343 343 342 337 335 335 335 336 336 336
346 341 338 340 340 343 343 343 346 348 347 347 347 346 347 346 346 345 345 343 344 345 344 344 344 344 345 344 345 346 345 346 347 348 349 348 347 347 348 349 348 348 347 347 347 347 346 344 341 343 344 343 341 341 341 342 342 342 341 342 344 344 345 345 345 343 343 343 343 343 343 343 343 342 342 344 345 341 341 337 336 335 335 335 335
337 336 343 340 339 340 342 343 345 346 346 347 348 347 347 347 348 345 346 345 345 343 344 343 343 344 344 344 344 344 344 345 345 346 347 346 347 348 348 348 348 346 346 345 345 346 346 345 342 343 342 343 341 343 342 342 341 341 340 342 344 345 345 344 345 344 342 344 343 342 342 343 343 343 343 343 343 343 341 341 338 336 333 335 336
338 339 339 339 340 343 344 344 344 346 347 348 348 347 346 345 344 345 342 342 342 341 342 341 343 342 343 343 343 344 344 345 344 345 346 346 347 346 347 347 347 345 344 343 342 343 344 343 342 340 341 342 343 343 343 341 340 340 339 340 343 343 343 343 343 342 342 343 343 343 343 343 343 344 344 343 344 345 343 341 340 337 334 333 334
338 341 336 340 344 343 344 343 346 346 346 344 343 342 342 341 342 340 337 339 339 339 340 342 341 341 342 342 341 342 343 343 343 344 345 344 345 346 345 345 345 344 342 342 344 344 344 345 343 343 341 340 340 342 343 341 336 335 338 338 338 341 340 340 341 340 340 341 341 341 342 342 342 343 343 344 344 344 345 343 341 339 336 335 335
336 339 341 342 343 343 343 343 345 346 346 345 344 344 343 342 340 338 338 338 338 337 337 338 339 339 340 340 341 341 342 341 342 341 342 342 342 340 341 341 341 343 344 344 344 343 343 343 343 340 342 339 339 341 341 337 334 331 327 329 332 336 340 341 339 339 339 338 340 340 341 340 340 342 342 341 342 341 341 342 341 339 338 336 336
335 337 339 342 343 343 344 344 344 345 346 346 344 341 342 342 340 338 338 336 338 338 337 337 337 337 337 338 338 339 339 338 339 340 340 340 340 339 339 340 341 342 342 342 343 342 341 341 341 338 336 338 338 340 340 339 332 333 332 329 325 324 331 334 340 339 340 341 339 338 338 337 337 338 339 339 340 341 340 341 340 340 339 338 336
334 336 337 339 340 340 341 342 344 344 343 341 341 342 342 341 341 339 338 337 334 335 335 336 335 335 333 335 335 336 336 335 335 336 337 338 338 338 339 340 341 342 341 340 341 340 341 340 341 340 338 333 335 336 340 340 336 332 324 325 325 325 321 324 329 332 335 336 337 336 337 336 337 337 338 336 338 340 341 340 339 340 340 338 338
332 333 334 335 335 336 338 339 339 340 339 340 341 341 339 338 337 337 336 334 334 333 333 331 332 332 332 332 331 332 332 331 333 333 333 333 333 334 335 336 336 337 338 337 337 337 338 338 338 338 337 334 330 334 337 339 338 338 331 326 325 322 321 324 326 327 333 332 333 334 335 335 335 336 335 334 336 337 338 338 339 340 339 340 339
328 330 333 334 335 335 337 338 337 337 338 339 340 340 338 336 334 333 331 330 329 330 328 328 328 329 327 329 328 326 328 328 327 327 327 328 328 328 330 329 328 329 330 331 333 334 335 335 335 335 334 336 335 330 331 337 339 337 336 332 329 324 322 326 325 319 330 332 332 332 333 333 335 335 336 334 332 333 335 336 338 339 340 339 337
326 329 330 331 332 332 334 335 335 335 337 338 338 338 337 336 334 333 332 330 328 327 328 328 327 326 326 325 325 325 324 324 324 323 322 323 324 325 326 326 326 326 326 326 326 327 327 329 331 334 333 333 334 329 330 330 333 336 337 337 335 333 332 326 321 323 321 327 330 330 332 332 333 334 334 334 334 334 334 335 337 337 339 339 338
326 328 328 330 330 331 332 332 332 333 334 335 335 336 334 333 332 331 330 328 328 325 325 325 325 325 323 323 324 324 324 323 322 321 321 321 322 322 322 322 322 323 323 323 323 324 325 326 327 329 330 330 329 329 330 330 328 328 333 333 334 333 334 334 333 327 324 320 323 329 331 333 334 334 333 333 335 335 335 335 334 336 337 337 338
325 325 327 328 329 329 329 329 330 331 330 331 332 333 333 332 331 329 326 326 326 325 325 325 324 324 323 323 323 323 323 323 323 323 324 322 321 321 321 321 321 320 320 321 321 322 323 324 324 325 325 325 324 326 326 326 328 328 329 330 330 329 330 332 332 331 327 324 321 322 324 330 332 332 334 334 335 338 338 336 334 334 336 337 338
323 324 324 325 325 325 324 324 325 326 327 329 330 330 330 329 329 328 326 324 324 324 324 323 323 323 321 321 321 320 320 320 320 320 321 321 320 319 318 319 319 319 318 320 320 320 321 321 323 324 326 325 324 323 322 323 323 324 325 326 327 328 328 327 327 327 326 327 322 321 324 323 322 327 333 332 334 335 337 338 337 334 334 336 340
323 323 323 324 324 324 325 325 326 326 327 327 327 326 327 326 325 325 324 322 323 322 321 321 320 321 320 320 319 318 318 317 318 317 318 318 318 318 317 317 318 318 317 317 318 317 318 320 322 323 324 322 322 322 322 323 320 320 321 320 320 322 323 324 324 325 324 322 321 321 324 324 323 324 329 332 332 333 333 335 336 336 335 335 335
Wind_Speed
14 16 15 17 15 15 15 14 13 14 14 13 13 13 13 13 13 13 13 13 13 13 13 13 13 13 13 13 13 13 12 12 12 12 12 12 12 13 13 13 12 13 13 15 14 16 16 16 16 16 16 17 16 16 15 15 14 14 13 14 14 14 14 14 13 14 16 16 14 13 12 13 13 14 13 12 11 11 11 10 8 9 9 11 12
16 15 14 15 15 16 16 15 14 15 14 13 12 13 13 12 13 13 13 12 13 13 13 12 12 13 13 13 13 12 13 13 13 13 12 12 12 12 13 13 13 13 13 14 15 16 16 16 16 16 17 17 16 16 15 14 14 13 13 13 14 14 14 14 13 12 13 16 15 14 14 14 13 13 12 11 10 11 11 12 10 8 9 11 12
17 15 14 15 17 17 16 16 15 15 14 13 13 13 12 12 13 13 13 13 12 13 13 13 13 13 13 13 13 12 13 13 13 13 12 12 12 12 13 13 13 14 14 13 15 15 15 15 16 16 16 16 15 15 14 14 14 13 12 12 13 15 14 14 12 11 11 13 15 16 14 12 12 12 12 12 11 10 12 15 13 11 9 11 10
17 14 14 15 18 16 16 16 15 16 15 13 12 12 12 12 13 13 14 14 13 13 13 13 12 12 12 13 13 12 12 12 13 13 12 12 12 12 12 13 13 14 14 15 15 15 14 14 15 14 15 15 15 14 13 13 13 12 12 12 13 14 14 13 11 10 7 8 11 10 8 10 12 12 12 12 12 12 12 12 14 12 11 9 9
16 15 14 13 14 15 17 17 15 17 15 14 12 13 14 13 13 13 14 14 14 13 13 13 14 13 13 13 13 13 13 13 14 14 13 13 12 12 12 13 14 14 15 14 15 14 14 14 14 14 15 15 14 14 13 12 13 12 12 12 13 13 12 11 10 7 5 4 5 5 8 9 10 12 11 12 13 13 12 12 12 11 10 9 9
15 15 14 13 14 15 16 17 17 18 17 15 13 14 14 13 14 14 14 14 13 13 14 13 13 12 14 13 13 14 14 14 15 14 13 14 13 13 14 14 14 13 14 14 14 14 13 13 14 14 13 13 13 12 11 11 11 11 11 11 11 11 11 10 8 8 4 2 6 5 7 8 9 9 12 13 13 12 12 12 11 8 8 8 11
16 13 13 13 12 14 15 16 18 17 16 15 15 14 14 14 14 14 14 14 14 13 13 13 13 14 13 13 14 15 14 15 16 16 15 15 14 14 14 14 13 13 13 13 13 12 13 13 12 12 11 10 10 9 9 9 10 10 10 11 10 10 9 9 7 3 5 8 5 5 6 7 7 7 11 10 10 11 11 10 9 8 10 9 8
13 12 13 12 12 15 16 17 17 17 17 15 15 14 14 14 14 14 14 13 13 13 14 14 13 14 14 15 15 15 15 15 15 15 15 14 14 13 13 14 14 13 12 12 12 12 12 11 11 11 10 10 8 7 7 8 8 9 9 9 9 9 8 7 6 3 10 1 3 4 5 6 7 6 9 9 8 8 8 8 7 7 8 7 5
13 13 13 12 14 17 15 14 15 17 17 15 15 15 14 14 14 13 14 13 13 13 14 14 15 15 15 15 14 14 14 13 14 14 14 14 14 13 12 12 12 12 12 10 11 11 10 10 10 10 9 8 7 6 6 6 8 8 8 8 9 7 6 5 6 9 6 4 4 5 6 7 7 7 8 7 7 6 6 5 13 9 8 8 7
13 12 12 11 13 16 15 13 14 16 17 16 16 15 14 14 13 14 14 14 13 13 14 15 15 15 14 14 14 13 13 12 13 13 13 13 13 12 12 12 11 11 11 10 9 10 9 8 9 9 8 7 6 6 6 7 9 9 8 8 7 8 6 6 9 11 3 4 6 6 7 10 8 8 8 6 7 6 6 12 13 12 9 6 7
13 12 11 12 16 13 13 13 14 15 16 16 16 15 14 13 13 13 12 13 14 14 15 15 14 14 14 14 14 13 12 12 12 12 12 12 12 11 11 11 11 11 10 9 8 9 8 8 8 8 7 6 6 6 7 9 9 9 8 7 7 6 6 9 13 2 3 7 7 8 7 3 7 7 7 6 7 8 10 9 9 6 6 7 6
13 12 12 13 16 12 12 13 15 13 15 15 15 15 14 13 12 12 12 13 14 15 15 14 13 14 14 14 13 12 12 12 12 12 12 11 11 11 11 10 10 10 10 10 9 8 8 8 7 6 5 6 7 8 9 11 11 9 8 8 7 6 6 8 9 4 3 5 5 3 7 8 7 8 7 7 8 7 6 6 6 6 5 6 6
13 12 13 13 13 12 12 13 14 14 14 14 14 14 13 13 12 12 12 10 13 14 15 15 13 13 13 13 12 11 11 11 11 11 11 11 10 10 11 10 10 10 9 9 9 8 8 8 7 5 5 6 7 9 11 12 11 10 8 7 7 5 8 8 5 1 4 4 3 3 7 6 7 8 7 6 6 5 5 4 4 4 5 5 5
13 13 13 12 12 14 11 12 12 13 13 12 12 11 10 10 11 12 12 12 13 14 14 13 13 13 13 12 11 11 10 10 10 10 11 10 10 10 10 9 9 9 9 8 9 8 8 7 6 5 5 5 7 9 11 11 11 9 8 7 6 6 8 10 2 3 4 3 2 5 5 5 7 7 5 7 5 6 4 5 5 4 5 6 6
14 14 14 13 12 13 15 11 11 11 10 10 10 10 12 10 10 11 12 13 13 13 13 13 13 12 12 11 10 10 10 9 9 9 9 9 9 9 9 9 8 8 8 8 8 8 7 6 5 4 5 5 6 9 10 11 10 10 8 7 6 7 9 4 1 4 3 2 3 3 5 6 7 2 6 7 6 3 5 5 4 5 4 3 3
14 14 14 13 13 13 12 14 12 11 11 11 11 12 11 10 10 12 11 12 12 12 12 12 11 11 11 10 9 9 9 9 9 8 8 8 8 8 9 9 8 7 7 7 8 7 7 5 5 4 4 5 7 9 10 10 10 9 9 7 5 5 8 11 2 1 2 2 3 3 5 7 3 3 4 5 5 3 4 5 3 3 4 3 7
13 12 13 14 14 12 12 12 12 13 12 12 11 11 12 12 12 12 11 12 14 13 12 11 11 10 10 10 10 9 9 9 8 7 7 8 8 8 8 8 8 8 7 7 8 8 6 5 4 4 4 5 7 10 10 9 9 9 8 6 4 3 8 12 2 2 3 4 2 1 4 6 6 4 4 5 5 3 4 3 3 4 2 5 3
12 11 12 12 12 11 11 13 13 11 11 11 12 11 12 11 10 11 11 12 13 13 11 11 10 10 10 10 9 9 8 8 8 7 7 7 7 8 8 8 8 8 7 7 7 7 6 4 4 4 4 5 7 9 9 8 8 7 6 5 4 2 7 11 1 2 4 0 3 1 4 9 5 3 4 6 5 2 1 3 3 3 2 3 2
11 11 11 11 11 11 12 11 11 11 11 9 8 11 12 11 10 11 11 12 13 12 12 11 10 10 10 9 9 8 8 7 7 7 6 5 6 8 7 7 8 8 7 7 7 7 6 4 4 4 4 5 7 9 9 8 7 7 6 5 4 3 8 10 1 2 3 2 1 3 6 6 2 4 5 3 2 1 2 3 2 3 2 2 3
10 10 9 9 9 10 9 9 9 9 9 9 10 10 12 11 11 11 12 12 12 11 10 10 10 10 10 8 7 9 9 7 6 7 7 5 6 7 6 7 7 8 7 7 7 6 5 5 4 4 4 5 7 8 8 7 7 6 5 5 5 8 8 2 2 3 1 4 1 4 10 5 6 4 3 1 2 2 3 3 2 2 2 2 2
8 9 9 9 9 9 9 8 8 8 8 9 9 9 10 11 10 11 11 10 10 10 10 10 11 10 8 5 4 1 4 4 7 4 8 5 6 5 6 6 6 7 8 8 7 6 5 4 3 3 3 6 7 8 7 7 6 5 5 5 7 9 1 1 1 1 1 3 3 7 10 7 7 2 2 2 4 2 2 3 2 3 2 2 0
8 8 8 8 8 8 8 8 8 9 8 7 7 8 9 9 9 9 8 9 9 9 9 6 7 7 6 6 2 3 4 5 5 3 4 7 7 5 6 5 6 7 7 8 8 6 4 3 1 2 3 6 13 7 7 7 6 6 6 6 8 3 1 1 2 0 0 2 1 10 10 7 6 4 3 5 5 3 3 2 0 1 3 2 2
8 8 7 8 7 7 8 8 9 9 8 8 7 7 8 7 8 8 7 7 7 6 6 5 5 4 4 4 3 3 3 4 5 4 4 6 6 5 5 5 5 6 5 7 7 6 4 3 1 1 4 8 10 4 5 6 6 8 7 7 6 1 1 2 2 2 2 4 0 13 8 6 5 5 5 4 4 2 4 3 3 3 4 4 4
9 8 8 7 7 7 8 7 8 8 7 6 6 6 6 6 6 6 6 6 6 5 5 4 4 4 4 3 3 3 3 4 7 8 6 6 6 8 7 7 9 7 4 8 11 7 6 6 3 4 8 8 4 4 3 4 5 5 5 4 3 1 3 2 3 0 3 2 3 12 8 6 6 6 3 4 4 3 5 6 5 4 3 4 4
8 8 7 7 8 8 7 8 8 7 6 6 6 6 6 5 6 5 5 5 5 5 5 5 5 5 4 3 3 2 2 3 2 2 2 2 4 4 5 3 3 4 6 1 3 5 9 6 6 7 6 4 3 1 1 2 2 2 1 2 2 2 3 2 2 3 1 1 6 9 8 6 6 5 4 4 4 4 4 5 5 4 5 2 2
8 7 8 8 7 7 8 7 7 7 6 6 6 7 6 6 6 6 5 5 5 5 5 5 5 4 3 3 1 2 1 2 2 2 1 1 1 1 1 2 2 2 2 2 2 1 1 2 4 5 4 4 3 2 2 2 2 3 2 1 2 2 3 3 2 2 3 2 6 10 7 6 6 6 6 5 5 5 5 5 6 6 3 5 5
7 8 7 7 7 7 7 7 7 7 7 7 7 6 6 6 6 6 6 6 5 5 5 4 4 4 3 2 1 1 1 1 2 2 1 1 1 1 1 1 1 1 1 1 1 1 2 1 2 3 3 4 4 4 4 3 3 2 3 3 2 3 3 3 3 3 3 3 6 12 9 7 7 7 7 5 4 6 6 6 7 6 6 6 5
7 9 8 7 8 8 8 7 7 7 7 7 7 6 6 6 7 6 5 5 5 4 4 4 3 2 2 1 1 1 1 1 1 1 2 1 2 2 2 1 1 1 1 1 1 1 1 1 1 2 4 5 5 5 4 3 3 4 4 4 3 4 3 4 3 4 4 3 3 12 11 10 9 9 9 8 6 6 6 8 7 7 7 7 7
9 9 8 8 9 8 9 8 8 8 7 7 7 6 7 7 6 6 6 5 5 4 4 4 3 2 1 0 1 1 1 1 1 1 1 1 1 1 1 1 1 1 1 0 1 1 2 2 1 3 3 3 5 5 5 5 3 5 4 5 4 4 4 4 4 4 4 4 5 8 13 12 10 9 9 9 8 8 7 8 8 8 8 8 8
9 9 9 8 8 8 9 9 9 8 8 7 7 6 6 7 6 5 6 5 5 5 5 4 3 2 1 1 1 1 1 1 1 1 1 1 1 0 1 1 1 1 2 2 2 2 2 2 2 3 3 3 4 4 4 5 5 5 5 5 5 5 4 4 4 4 5 5 4 4 14 13 10 10 10 9 11 8 9 8 8 10 9 9 8
10 10 8 8 8 9 9 9 9 9 8 7 7 7 6 5 5 5 5 5 5 5 4 3 2 2 2 2 2 2 0 1 0 1 1 1 1 1 1 1 1 1 2 2 3 3 2 2 2 3 3 4 3 3 4 5 5 6 6 5 6 6 5 4 5 5 5 5 4 5 9 13 12 11 10 10 10 11 9 9 9 10 10 10 9
10 9 8 9 10 10 10 10 9 8 8 8 7 6 5 5 4 4 4 4 3 3 3 3 2 3 3 2 2 1 1 0 0 0 1 1 1 2 2 1 1 1 2 2 3 3 3 2 3 3 4 4 5 4 4 5 6 6 6 6 6 5 6 6 6 6 6 5 5 4 4 8 13 13 13 11 10 11 11 10 9 11 11 11 11
8 9 9 10 10 9 7 6 7 7 7 7 6 5 5 5 4 4 3 3 3 3 3 2 3 3 2 2 2 2 1 0 1 1 1 1 1 1 1 1 1 1 1 2 3 3 3 3 2 3 4 4 5 5 5 6 6 6 7 7 7 7 7 6 6 6 6 6 6 6 6 7 9 15 14 13 12 11 11 11 11 11 12 12 11
9 9 10 10 7 6 3 4 5 5 6 6 5 4 4 4 3 4 4 4 3 3 3 3 2 2 2 2 1 2 0 0 0 1 1 0 1 1 1 1 1 2 2 2 2 2 2 3 3 3 2 4 4 5 5 6 5 6 6 7 7 7 6 7 7 7 6 6 6 7 7 7 7 7 10 15 13 11 11 12 12 12 12 12 12
9 10 10 10 7 6 5 5 6 6 7 7 6 6 5 5 4 4 4 4 3 3 3 3 2 1 1 1 2 2 2 1 1 2 2 2 1 1 1 1 1 2 2 0 3 3 2 3 2 3 2 4 5 4 4 5 5 6 6 6 6 7 6 7 7 7 7 6 6 7 7 7 7 6 6 7 13 14 13 12 13 13 13 13 13
10 10 9 8 8 7 8 7 8 8 7 6 6 6 6 5 5 5 5 5 4 4 3 3 2 1 1 1 1 1 2 2 2 2 2 2 2 2 1 1 1 2 2 1 2 3 2 3 3 3 4 4 5 5 4 4 5 6 6 6 6 6 7 7 7 7 7 6 6 6 6 7 7 7 7 6 6 12 14 12 11 12 13 12 14
9 9 7 9 9 10 9 9 9 8 6 7 7 6 6 7 6 5 5 5 4 4 3 2 1 1 2 2 2 2 2 3 3 2 3 3 2 2 2 2 2 3 3 2 2 2 2 3 3 4 4 5 5 6 5 4 5 6 6 7 7 7 7 7 7 7 6 7 7 8 7 8 8 8 7 7 6 6 13 14 14 14 14 12 13
8 8 10 7 9 8 8 7 7 7 7 7 7 7 7 6 6 5 5 5 5 4 4 4 3 3 3 3 3 3 3 3 3 3 2 3 2 2 2 2 3 3 3 3 2 2 2 3 3 4 4 4 5 5 5 5 5 6 7 7 7 7 7 7 7 7 7 8 7 8 7 6 7 8 9 8 8 8 7 13 15 14 13 13 12
8 8 7 9 7 7 7 7 7 8 7 7 7 7 7 6 6 6 6 6 5 5 4 4 4 3 4 4 4 3 3 3 3 3 3 2 3 2 2 2 3 3 3 4 3 3 3 3 3 4 4 5 5 5 5 5 6 6 7 7 7 8 8 7 7 7 8 8 8 7 7 7 7 8 8 8 8 8 9 8 9 9 10 14 14
9 8 9 9 8 9 7 7 7 6 6 6 5 5 5 4 5 5 6 6 6 5 5 5 4 4 4 4 4 4 4 4 4 4 3 3 3 3 3 3 2 3 3 4 4 3 4 5 4 5 6 5 4 4 4 5 6 7 8 7 7 8 9 7 7 8 7 7 7 6 6 7 7 8 8 8 8 8 8 9 9 8 8 12 17
9 8 9 8 9 8 8 8 6 6 5 5 5 5 6 6 5 6 6 6 6 5 5 5 5 6 6 6 5 5 5 5 5 5 5 5 4 4 4 4 4 3 3 4 4 5 4 4 5 5 5 6 5 4 4 6 7 7 6 6 7 8 8 8 8 7 7 6 6 6 6 6 7 8 7 7 8 8 8 9 9 9 8 8 12
7 8 9 9 8 8 8 8 7 7 7 6 6 5 5 5 4 5 5 5 5 5 6 6 6 6 7 7 7 6 7 7 6 6 6 6 5 4 4 4 4 4 4 4 4 4 4 4 4 5 4 5 5 5 4 6 5 6 8 8 7 6 7 7 6 6 6 5 6 7 7 7 8 7 7 7 8 10 10 9 9 10 10 10 9
8 8 9 10 9 9 8 8 7 7 7 6 6 7 7 7 7 6 6 7 7 6 7 7 7 7 7 7 7 7 7 7 8 7 6 6 6 6 5 4 4 4 4 4 4 5 5 5 5 5 6 5 6 5 4 3 7 7 9 9 7 8 4 4 3 5 6 6 7 8 7 8 8 8 7 7 8 8 9 9 10 10 10 10 10
8 9 8 9 7 8 8 8 8 7 7 8 8 9 10 9 8 8 7 6 7 7 7 6 7 7 7 7 7 7 7 7 8 8 7 8 8 8 7 7 6 6 5 5 5 5 5 5 5 6 6 7 6 5 3 3 5 7 7 6 9 8 9 1 5 6 7 8 7 7 6 7 8 8 7 7 8 8 8 8 10 11 11 10 10
8 9 8 8 7 9 8 9 8 8 7 7 9 9 9 9 8 9 8 8 6 5 5 5 5 6 6 7 8 8 8 8 8 8 8 8 8 8 8 8 9 10 9 7 7 7 7 6 6 6 7 7 8 6 5 4 5 5 6 8 6 6 6 9 10 9 3 4 6 8 7 8 8 8 7 7 8 8 8 10 10 10 11 11 10
8 8 9 10 10 8 9 9 8 8 7 7 6 5 6 6 6 6 6 5 5 4 5 5 5 5 6 6 8 8 8 8 8 9 9 8 8 9 8 8 8 8 8 8 8 9 10 11 10 8 8 8 8 8 8 4 4 4 5 5 6 6 9 10 11 8 6 7 6 7 8 8 7 8 7 8 9 8 7 9 10 10 11 11 11
8 8 8 9 10 9 9 9 8 8 7 7 6 5 5 5 5 4 4 4 4 5 5 5 5 5 5 6 6 7 8 8 9 9 9 9 8 8 8 7 6 6 6 6 7 8 8 9 10 10 10 9 8 8 9 7 6 4 4 5 7 8 8 8 7 10 11 7 7 7 7 8 8 8 8 9 9 8 7 8 9 10 10 11 11
6 6 7 8 10 9 9 9 7 8 7 6 5 4 6 6 6 5 5 5 5 5 5 5 5 4 5 5 4 5 7 7 8 8 8 8 8 8 8 8 8 8 7 6 6 6 6 5 7 9 9 8 10 9 10 8 8 8 6 7 7 8 7 9 9 9 10 12 11 8 8 6 6 7 9 10 9 9 9 8 10 11 10 11 11
6 6 7 8 8 9 9 9 9 8 8 8 7 7 6 4 4 5 5 5 4 4 3 3 3 3 4 3 4 4 5 7 8 8 7 8 8 7 7 7 7 7 6 6 6 7 8 8 8 8 8 9 8 8 9 9 10 9 11 10 9 9 8 7 8 8 8 10 12 11 10 9 9 8 8 9 9 9 9 10 9 10 10 9 10
6 8 8 8 8 8 9 10 10 8 7 8 8 8 7 6 5 5 5 5 3 3 2 2 2 2 4 4 4 5 5 6 7 9 8 8 8 8 7 8 7 7 6 6 7 7 8 7 8 8 9 10 7 8 8 7 8 9 9 10 10 10 10 8 7 9 10 10 11 13 12 13 12 9 8 9 10 10 10 9 10 11 10 9 9
7 8 8 8 8 8 9 11 10 8 8 8 8 8 8 8 7 6 6 5 4 3 3 3 3 3 4 4 5 5 6 6 7 7 9 9 8 9 8 8 7 7 7 8 8 8 8 8 8 9 9 10 8 9 9 8 8 7 9 8 9 9 11 12 11 11 11 10 12 13 13 13 13 14 10 10 10 11 11 10 10 11 11 10 10
Wind_Direction
147 135 131 131 135 134 131 129 126 118 114 110 106 106 107 108 110 109 110 109 109 110 110 110 109 107 104 101 98 95 91 89 90 90 89 89 90 91 90 89 89 95 103 102 102 102 103 101 98 93 90 85 84 82 79 79 76 77 82 86 88 92 90 89 88 91 81 74 78 88 87 82 80 74 73 71 65 52 34 26 74 71 67 65 57
143 132 131 133 130 133 132 129 126 120 116 114 112 111 111 110 113 112 111 111 111 111 110 108 107 105 101 99 96 96 94 90 88 88 86 86 88 92 95 98 103 102 99 101 102 103 101 100 96 93 91 88 85 84 84 83 82 82 83 88 85 78 76 78 80 81 91 89 86 86 86 83 78 74 75 75 69 54 44 39 57 69 72 64 58
135 130 132 130 131 132 130 130 128 122 119 119 117 111 111 112 111 112 112 111 108 108 106 104 102 102 101 97 94 89 88 90 88 87 91 92 93 94 96 99 98 100 97 100 102 101 101 99 97 98 96 96 92 88 88 87 89 89 86 82 85 81 80 80 83 84 84 100 106 104 98 89 82 86 84 81 75 67 58 48 45 62 64 53 64
134 134 128 127 129 131 131 130 129 124 123 121 116 112 112 111 110 110 110 108 105 105 106 102 99 98 97 98 97 95 91 91 90 87 87 86 87 93 98 99 99 98 101 102 104 105 103 102 103 99 93 89 89 89 86 88 90 90 91 91 93 94 90 90 89 89 102 119 139 140 97 99 87 74 73 72 74 77 75 72 70 66 69 64 66
133 134 126 133 130 130 131 131 130 125 124 122 118 117 116 113 111 110 109 107 106 105 103 103 101 101 102 99 95 91 89 85 83 81 78 77 78 83 90 93 91 95 101 99 101 105 104 97 96 95 95 93 89 86 84 86 89 91 94 97 95 94 90 88 85 81 80 136 162 127 102 90 82 74 78 78 77 74 78 79 75 72 78 78 69
132 130 133 131 127 131 131 133 130 126 125 124 123 120 118 115 113 111 109 107 104 104 103 103 103 102 95 94 94 88 84 83 85 80 77 75 72 77 83 87 90 92 92 95 97 99 102 103 101 100 98 95 88 81 80 84 87 92 97 98 98 96 96 93 88 76 51 300 219 102 101 93 96 91 82 81 79 77 76 75 72 76 98 102 100
132 132 128 128 126 128 131 133 130 128 126 127 124 121 118 118 116 114 112 110 106 105 105 102 99 98 100 99 94 92 88 84 79 78 78 74 71 70 77 83 87 88 92 94 95 95 96 99 100 96 96 93 86 78 77 87 93 93 97 96 96 98 103 101 97 121 206 231 84 79 86 96 91 89 75 79 78 73 72 68 66 73 59 57 41
133 132 130 127 123 129 133 134 132 127 127 125 125 123 120 121 118 116 114 111 108 107 104 101 103 101 96 88 84 83 82 81 80 79 78 75 71 72 73 78 79 83 89 88 89 90 90 88 88 88 86 86 86 86 91 89 102 107 105 105 101 106 102 100 104 196 252 96 93 79 90 92 94 96 83 76 74 75 79 78 85 84 77 60 88
134 130 127 122 121 129 134 133 132 129 128 128 127 124 122 120 118 117 116 113 111 108 105 104 96 91 89 87 83 82 81 80 80 80 79 75 72 70 71 74 74 73 70 74 79 81 84 86 87 88 86 85 87 89 95 116 115 119 115 117 113 114 122 138 191 204 209 100 109 117 112 107 97 98 83 80 73 56 40 103 122 107 71 45 51
129 125 120 123 128 130 133 133 130 127 128 129 126 125 123 120 117 118 118 116 114 110 107 102 99 95 89 85 82 79 78 78 79 79 78 77 75 73 71 71 75 75 74 75 80 86 88 87 90 87 84 84 86 90 97 123 134 125 129 125 130 128 146 193 209 235 72 103 80 61 32 349 88 84 89 81 71 65 60 45 43 45 53 66 59
126 120 120 122 123 128 130 130 130 129 129 128 127 125 122 121 120 121 119 118 116 111 106 100 98 94 90 87 83 80 78 77 78 77 74 73 72 74 76 77 74 74 78 85 87 88 87 90 89 86 87 92 95 98 107 123 136 136 131 134 138 148 169 222 237 96 91 88 95 103 90 290 89 92 104 94 99 92 70 55 58 72 82 79 82
126 120 120 116 121 124 127 129 129 129 129 128 125 123 122 122 121 121 123 121 118 111 106 105 102 99 95 90 87 87 85 84 85 84 84 81 81 81 84 85 85 86 86 88 93 98 99 97 94 90 91 94 98 100 114 131 136 137 136 139 141 173 215 230 258 87 95 87 96 92 104 89 88 93 102 89 93 97 87 89 75 76 79 64 61
126 121 119 123 129 122 125 129 129 128 128 127 126 123 121 122 122 120 116 116 117 111 109 105 102 98 95 94 93 90 89 87 88 88 86 88 89 88 86 88 89 89 92 96 100 102 102 96 94 88 84 95 106 112 121 133 138 139 141 144 155 176 239 281 271 65 86 95 102 96 86 94 88 100 97 95 98 96 87 75 81 80 70 74 76
131 127 125 126 123 126 124 124 126 127 127 126 122 120 119 116 118 113 110 115 112 109 106 105 103 100 98 97 96 97 95 94 92 92 93 90 90 90 89 86 90 92 93 95 96 98 96 94 90 82 79 86 120 127 128 134 139 144 146 147 161 193 235 237 334 87 84 100 68 67 74 82 87 87 95 98 91 75 86 90 83 90 62 54 56
133 134 127 126 130 130 124 119 121 124 121 119 113 106 100 104 109 112 116 117 114 109 107 105 103 103 102 101 101 102 101 97 95 93 93 93 92 92 91 86 86 92 96 97 99 98 92 89 87 86 88 102 128 136 135 138 144 147 152 156 163 215 231 275 157 79 91 78 116 164 102 88 89 128 109 109 99 92 84 67 76 61 59 58 87
133 133 131 134 132 131 133 126 117 115 112 104 99 98 99 100 105 117 115 116 115 114 111 108 107 106 106 107 105 98 95 92 91 91 92 92 88 88 85 88 88 90 96 99 97 91 90 90 91 89 88 110 131 141 141 146 147 150 152 159 183 220 262 289 77 84 90 113 91 61 89 84 73 110 110 121 98 99 97 96 91 83 62 74 65
138 140 136 134 139 137 131 136 125 119 110 103 103 100 100 101 106 106 115 119 121 119 116 114 111 112 113 112 104 97 94 94 90 87 87 88 87 83 90 90 87 86 91 96 99 98 93 94 90 88 88 110 137 143 146 147 149 146 151 166 180 204 284 295 57 41 44 49 52 60 84 105 108 97 126 117 119 106 88 91 59 63 72 52 60
138 136 134 139 141 137 133 127 139 138 130 121 110 110 110 104 96 98 104 109 115 118 116 117 119 121 118 112 109 106 102 103 99 92 86 85 83 79 81 88 96 93 87 95 100 103 106 98 95 88 84 110 135 147 146 150 146 146 152 168 173 198 273 281 59 84 71 167 85 53 69 79 132 131 105 117 97 81 238 81 65 73 67 80 66
136 136 137 139 140 135 136 137 143 139 139 128 128 124 115 110 107 108 106 113 116 119 122 124 125 119 123 117 116 115 111 105 110 102 100 103 115 109 77 84 88 93 90 88 98 107 114 108 95 85 84 100 133 148 148 147 149 148 154 167 178 209 250 260 69 94 131 150 101 95 84 85 105 123 127 121 69 107 174 124 150 139 94 43 53
130 133 139 135 133 136 137 139 141 138 134 129 131 127 118 119 117 115 113 114 118 119 124 124 123 109 93 107 130 140 142 118 133 119 112 114 50 66 93 86 85 94 94 88 88 102 115 112 97 94 98 107 126 142 144 141 145 154 163 167 186 215 232 223 24 33 88 66 324 101 107 159 159 172 170 161 134 240 164 150 203 117 133 123 96
134 137 132 130 134 136 137 136 139 134 128 124 128 123 121 131 128 119 117 117 118 123 120 127 124 114 125 121 196 129 89 117 174 103 173 105 102 108 102 98 93 97 105 95 95 102 106 112 103 101 118 131 127 136 134 145 154 165 171 182 209 228 38 343 263 146 24 131 192 102 132 164 200 174 166 161 145 166 66 4 158 169 168 128 140
142 140 134 136 139 142 135 131 127 117 125 129 127 131 141 152 133 140 137 136 137 144 163 144 139 122 149 178 111 108 127 112 102 151 119 147 127 113 113 109 102 104 102 106 95 94 106 99 114 131 141 168 160 159 155 151 167 177 187 199 226 244 154 246 276 234 213 112 198 116 153 182 184 179 155 164 170 162 161 220 310 232 166 192 129
142 138 136 139 138 130 126 122 122 138 139 136 133 136 144 139 144 137 133 148 139 164 140 153 130 118 96 91 119 117 115 105 93 88 94 66 118 132 120 121 116 98 102 106 108 108 112 130 153 242 213 209 207 162 168 158 165 185 192 216 239 246 287 271 257 267 240 50 65 125 163 186 210 184 166 181 185 179 164 194 213 204 182 190 157
141 143 139 137 139 128 119 125 138 139 147 132 138 140 136 140 133 146 144 137 146 138 135 120 111 105 119 119 134 140 121 117 129 157 176 168 142 163 159 167 154 143 175 178 144 140 153 162 176 233 225 216 201 195 170 164 161 179 206 214 228 233 254 237 257 266 314 105 93 135 159 200 222 229 183 193 205 142 187 206 208 207 183 210 166
138 136 137 138 128 123 138 138 139 142 138 134 138 137 140 139 132 131 128 125 126 126 126 133 129 131 128 140 126 125 122 101 111 134 153 145 143 161 171 155 146 129 196 194 203 142 195 158 167 211 215 225 219 229 244 144 215 206 220 273 286 293 282 269 294 307 289 277 104 142 162 210 225 239 236 196 215 195 191 211 224 214 198 213 172
133 142 132 128 135 139 144 135 141 140 134 141 133 128 139 134 136 127 128 129 126 125 129 135 135 136 138 124 107 120 110 105 100 72 85 94 84 75 104 121 107 87 166 211 127 226 174 176 192 200 211 220 224 217 232 262 193 222 249 238 263 268 278 291 288 272 292 286 128 147 165 214 225 240 246 241 223 184 199 210 227 214 182 201 218
150 139 145 138 134 142 133 141 138 138 137 128 133 142 133 132 134 136 135 130 133 134 134 129 124 125 117 98 85 70 76 69 66 73 65 40 40 40 56 84 108 94 62 171 167 189 259 167 190 204 214 213 214 221 221 224 288 275 236 262 283 272 266 271 268 257 255 263 135 159 170 204 221 230 241 245 226 205 220 220 219 221 199 219 234
141 142 143 144 145 139 141 143 136 140 138 138 130 131 133 132 125 130 134 134 142 127 119 107 101 113 109 100 40 6 23 27 42 28 19 3 13 18 10 19 53 90 71 331 191 210 215 231 292 220 214 205 211 221 239 239 227 269 282 261 254 265 283 285 280 274 264 232 229 164 175 198 211 225 238 246 232 230 226 212 228 225 210 217 233
139 149 143 143 145 148 144 139 139 139 134 133 132 132 135 136 136 141 134 150 129 120 107 117 126 123 117 62 45 27 37 3 5 14 328 4 10 2 357 21 6 9 312 281 300 227 225 236 223 257 206 229 212 220 228 237 245 249 258 260 265 282 275 277 274 268 251 254 248 162 176 185 208 220 227 240 244 239 224 225 224 228 218 220 225
147 147 147 146 143 149 143 142 141 137 135 135 131 134 136 136 142 136 126 139 121 132 149 144 138 154 131 79 54 55 42 38 34 319 308 358 328 5 350 17 9 352 330 318 309 277 273 238 240 248 281 237 243 223 226 236 233 252 265 278 270 270 272 273 278 268 268 249 244 163 175 180 204 208 218 227 243 237 233 227 225 235 223 225 223
149 149 149 144 147 149 142 139 138 139 138 132 134 133 133 130 131 132 133 130 133 136 135 132 121 96 80 76 72 97 130 131 116 298 304 353 345 349 14 6 2 15 345 328 324 304 283 286 260 275 258 269 274 271 253 255 250 238 230 254 272 263 265 264 260 261 264 254 242 233 177 183 192 211 208 213 231 238 239 228 216 235 233 224 231
154 151 149 148 148 139 134 134 137 139 135 134 137 140 132 123 119 115 113 110 117 119 104 91 98 95 93 84 103 146 198 204 122 345 357 2 17 29 7 347 23 10 341 352 320 315 299 280 283 267 280 279 264 261 258 261 262 269 268 247 255 273 271 267 269 271 266 271 258 234 234 185 193 204 212 208 212 226 244 237 214 229 236 227 223
151 156 146 142 133 128 105 110 126 135 133 129 125 116 116 119 119 116 104 102 101 98 107 108 101 104 103 122 144 154 187 105 0 359 2 15 32 8 4 352 21 6 336 308 291 288 284 269 240 251 250 253 263 259 260 265 270 273 275 284 280 269 270 276 280 276 273 262 258 250 225 224 212 193 204 208 210 215 227 240 225 225 233 237 225
153 150 141 133 123 104 133 137 141 134 122 118 115 113 110 110 113 110 113 114 105 106 97 95 105 120 128 149 146 107 103 143 261 143 202 208 54 339 6 350 347 327 273 258 279 280 292 303 287 262 260 269 263 262 260 263 270 271 272 278 280 283 289 286 280 279 270 266 260 253 245 236 232 209 197 203 207 209 220 224 226 225 229 236 230
150 140 143 130 114 145 170 142 147 137 126 121 125 133 135 128 126 119 104 106 118 108 96 97 102 72 117 97 60 44 325 338 345 337 346 325 341 335 277 9 320 273 281 320 294 289 282 292 296 290 298 279 274 277 276 277 273 277 282 283 281 286 280 275 277 271 268 262 259 256 253 247 244 237 220 196 199 205 207 215 221 228 230 231 229
141 139 132 129 161 161 154 145 145 138 132 132 131 122 121 119 110 103 113 120 108 90 78 71 64 130 186 120 58 332 296 310 324 329 304 315 322 307 316 318 311 270 267 284 276 290 332 307 302 292 292 285 290 280 277 284 288 286 286 285 284 281 280 277 273 273 275 269 256 253 247 245 243 238 230 235 194 199 197 205 220 227 238 243 236
134 136 136 147 150 146 145 139 138 128 129 129 127 122 114 104 96 89 79 75 71 77 91 97 82 20 11 21 25 340 353 354 332 335 336 321 306 311 336 339 316 302 305 301 285 298 312 300 304 309 296 295 285 290 293 286 283 282 271 269 274 279 276 280 282 281 278 269 264 261 250 245 243 241 233 226 212 208 190 206 211 223 232 236 238
131 136 144 156 142 135 130 129 130 129 126 123 121 118 112 105 93 87 84 76 64 61 66 60 48 37 24 30 11 27 1 9 342 351 331 316 311 296 319 316 306 320 311 300 300 290 286 298 306 304 300 297 292 299 299 294 292 286 281 279 279 278 279 279 280 281 274 271 268 262 262 256 243 233 230 223 220 212 207 198 214 218 229 238 236
138 149 139 140 129 132 130 133 129 127 126 123 120 116 114 114 121 111 98 83 71 61 53 59 54 48 47 41 37 41 24 12 11 354 346 320 302 297 311 328 309 301 307 294 284 283 310 303 303 298 291 294 302 299 301 305 295 286 283 282 280 273 272 274 279 279 281 281 279 279 271 254 244 237 234 230 223 220 218 217 212 214 222 232 239
121 128 125 126 127 125 130 126 123 130 128 129 130 123 110 106 101 89 79 70 67 62 60 61 53 55 50 38 33 30 22 26 18 11 351 342 331 349 347 323 321 307 309 299 295 303 315 305 306 301 305 303 289 297 296 296 293 285 275 274 272 277 272 273 275 275 276 275 271 266 261 258 247 240 238 234 228 220 218 216 219 218 217 214 219
113 125 127 132 127 129 129 126 126 124 123 117 107 103 109 107 90 87 80 78 75 75 70 63 57 54 40 43 40 33 24 26 18 16 3 359 2 0 352 348 340 324 310 304 318 312 318 317 308 305 306 302 293 296 299 300 297 292 280 281 279 267 267 263 259 265 264 266 267 269 267 265 261 256 244 231 234 230 225 221 222 224 224 231 211
110 120 119 122 123 123 114 113 112 102 93 93 96 88 83 86 93 79 78 74 76 72 70 59 54 56 50 43 36 36 33 30 26 21 18 9 3 354 354 360 343 338 318 323 317 323 302 308 321 300 293 300 298 302 310 306 288 304 308 301 286 267 246 242 259 263 260 264 269 262 256 257 255 254 253 245 238 236 230 226 227 227 229 231 235
108 110 111 108 111 112 112 110 103 103 98 98 97 93 88 76 78 86 92 94 74 69 73 72 66 61 54 46 36 33 29 28 15 19 16 14 11 4 0 351 344 340 329 328 333 321 327 324 322 311 309 301 294 291 306 304 307 311 300 292 292 307 273 239 229 263 271 280 280 279 276 267 264 257 240 236 244 244 240 230 228 225 227 229 230
105 99 104 104 101 101 101 99 99 96 97 95 92 87 85 91 90 94 92 91 95 88 81 75 70 66 59 51 48 43 40 37 30 21 18 16 9 2 353 353 358 356 337 328 334 333 342 327 328 324 318 307 308 309 315 309 308 316 309 315 310 302 303 291 323 304 290 285 280 281 279 275 276 273 272 258 246 243 246 249 234 229 229 228 230
91 92 90 87 85 84 86 89 88 87 91 98 101 104 105 101 105 103 101 101 104 108 104 81 69 67 62 50 43 37 33 32 27 24 24 22 19 11 6 4 360 359 354 353 348 344 338 332 330 316 318 317 309 307 307 315 298 306 304 314 319 291 314 322 325 305 299 284 278 282 276 275 279 278 267 261 256 248 240 240 243 238 230 229 223
88 87 92 97 97 91 91 91 89 84 82 83 91 95 106 118 131 137 132 124 106 79 62 64 66 59 56 55 42 33 36 36 30 28 28 26 25 20 19 17 15 10 6 1 359 356 354 346 346 334 323 320 306 305 307 309 292 283 283 279 289 303 312 323 314 307 307 291 286 280 286 286 281 273 270 268 262 258 242 241 233 233 235 231 223
83 80 80 81 83 86 86 83 86 86 78 76 89 100 87 79 69 60 50 58 83 80 79 77 75 72 66 53 51 41 35 37 35 33 32 30 27 23 21 22 23 19 12 14 13 4 354 353 345 351 346 333 327 310 312 310 300 272 264 262 267 271 288 301 305 310 303 311 299 292 278 276 286 288 283 276 268 260 253 260 258 248 232 227 227
63 74 77 78 79 77 74 75 76 76 77 80 76 66 97 84 75 67 66 70 80 91 87 82 77 76 64 53 48 44 40 42 41 39 38 33 31 28 23 23 21 17 10 20 8 5 358 350 356 351 353 351 350 342 328 325 322 312 313 294 280 273 263 267 272 285 295 301 301 295 287 284 282 275 277 277 272 266 260 245 249 250 243 234 227
80 77 77 75 78 79 80 79 77 73 65 59 67 63 55 63 96 100 90 90 100 105 105 100 98 85 71 62 48 49 48 39 32 29 25 30 26 25 20 19 17 10 1 6 1 355 357 352 354 354 353 350 355 348 343 343 341 336 333 321 312 306 297 278 271 273 288 298 298 302 304 302 291 280 272 273 273 268 262 256 253 251 255 244 232
96 88 81 81 81 84 86 84 80 75 73 75 74 73 78 71 63 80 101 107 104 87 64 73 79 78 65 55 53 49 45 43 38 31 24 25 23 21 18 16 13 8 1 357 355 356 355 349 347 344 345 346 342 348 349 343 346 342 338 331 330 326 311 310 307 307 296 288 293 303 304 303 300 296 291 279 273 269 261 257 255 248 245 244 242
108 100 94 94 97 94 96 90 86 85 79 76 71 73 71 73 76 82 83 84 79 79 89 81 67 66 71 66 65 60 52 48 37 33 33 30 29 28 21 18 19 11 8 3 6 359 354 349 348 348 344 351 350 345 338 353 348 338 344 345 337 335 329 323 325 321 314 304 307 302 305 301 300 298 290 285 283 275 267 257 251 251 249 241 235